EW0860 Weather Reports


Display with metric or nautical units.
time (UTC)temp
F
wind
direction
speed
MPH
gust
MPH
rain 1hr
in
rain 24hr
in
rain mn
in
humidity
%
barometer
mb
20260509153035 69 195 1.0 6.0 0.00 0.10 0.01 60 1006.6
20260509151532 68 215 2.0 8.0 0.00 0.10 0.01 63 1006.6
20260509150029 67 229 3.0 8.0 0.00 0.10 0.01 64 1006.5
20260509144535 67 220 3.0 8.0 0.00 0.10 0.01 65 1006.4
20260509143025 66 276 2.0 5.0 0.00 0.10 0.01 65 1006.4
20260509141521 65 312 0.0 7.0 0.00 0.10 0.01 68 1006.4
20260509140016 63 285 2.0 7.0 0.00 0.10 0.01 71 1006.5
20260509134513 62 281 4.0 11.0 0.00 0.10 0.01 71 1006.4
20260509133011 61 247 2.0 7.0 0.00 0.10 0.01 73 1006.3
20260509131508 60 359 2.0 9.0 0.00 0.10 0.01 75 1006.3
20260509130006 59 43 4.0 8.0 0.00 0.10 0.01 77 1006.2
20260509124607 58 359 3.0 8.0 0.00 0.10 0.01 79 1006.3
20260509123055 57 26 0.0 7.0 0.00 0.10 0.01 83 1006.0
20260509121553 56 13 1.0 4.0 0.00 0.10 0.01 86 1006.0
20260509120055 55 12 1.0 5.0 0.01 0.10 0.01 87 1005.9
20260509114552 54 26 0.0 3.0 0.01 0.10 0.01 87 1005.6
20260509113052 55 27 0.0 3.0 0.01 0.10 0.01 86 1005.5
20260509111551 55 23 3.0 7.0 0.01 0.10 0.01 88 1005.4
20260509110050 53 17 2.0 5.0 0.00 0.09 0.00 91 1005.0
20260509104550 53 16 0.0 4.0 0.00 0.09 0.00 90 1005.2
20260509103050 54 23 0.0 1.0 0.00 0.09 0.00 89 1005.4
20260509101555 55 18 0.0 3.0 0.00 0.09 0.00 88 1005.4
20260509100049 56 18 0.0 6.0 0.00 0.09 0.00 88 1005.3
20260509094547 56 23 3.0 9.0 0.00 0.09 0.00 89 1005.2
20260509093055 56 22 4.0 10.0 0.00 0.09 0.00 89 1005.1
20260509091546 56 20 5.0 13.0 0.00 0.09 0.00 90 1005.2
20260509090045 56 18 4.0 10.0 0.00 0.09 0.00 91 1005.0
20260509084552 56 19 3.0 8.0 0.00 0.09 0.00 91 1005.0
20260509083043 56 18 3.0 6.0 0.00 0.09 0.00 92 1004.9
20260509081544 56 18 2.0 8.0 0.00 0.09 0.00 92 1005.0
20260509080051 56 16 2.0 6.0 0.00 0.09 0.00 93 1005.0
20260509074539 55 16 1.0 7.0 0.00 0.09 0.00 94 1005.0
20260509073039 54 21 2.0 7.0 0.00 0.09 0.00 94 1005.1
20260509071534 53 18 0.0 6.0 0.00 0.09 0.00 95 1005.2
20260509070032 53 27 0.0 2.0 0.00 0.09 0.00 95 1005.2
20260509064530 53 27 0.0 3.0 0.00 0.09 0.00 95 1005.4
20260509063027 52 33 0.0 3.0 0.00 0.09 0.00 95 1005.6
20260509061526 52 25 0.0 1.0 0.00 0.09 0.00 95 1005.7
20260509060024 52 28 0.0 2.0 0.00 0.09 0.00 95 1005.8
20260509054520 50 310 0.0 2.0 0.00 0.09 0.00 95 1005.9
20260509053033 49 310 0.0 1.0 0.00 0.09 0.00 94 1005.9
20260509051523 50 310 0.0 0.0 0.00 0.09 0.09 94 1005.9
20260509050017 50 310 0.0 1.0 0.00 0.09 0.09 94 1005.9
20260509044514 50 310 0.0 0.0 0.00 0.09 0.09 94 1005.9
20260509043013 50 310 0.0 0.0 0.00 0.09 0.09 93 1005.7
20260509041512 51 310 0.0 0.0 0.00 0.09 0.09 93 1005.8
20260509040010 51 310 0.0 0.0 0.00 0.09 0.09 93 1006.0
20260509034507 52 310 0.0 0.0 0.00 0.09 0.09 93 1006.0
20260509033006 52 310 0.0 0.0 0.00 0.09 0.09 93 1005.9
20260509031504 53 310 0.0 0.0 0.00 0.09 0.09 93 1006.0
20260509030000 54 310 0.0 0.0 0.00 0.09 0.09 92 1005.9
20260509024559 54 310 0.0 0.0 0.00 0.09 0.09 92 1005.5
20260509023105 55 310 0.0 0.0 0.00 0.09 0.09 92 1005.4
20260509021556 56 310 0.0 0.0 0.00 0.09 0.09 91 1005.3
20260509020055 57 310 0.0 0.0 0.00 0.09 0.09 90 1005.2
20260509014555 58 310 0.0 1.0 0.00 0.09 0.09 90 1005.0
20260509013102 59 308 0.0 2.0 0.00 0.09 0.09 87 1004.8
20260509011554 61 291 0.0 0.0 0.00 0.09 0.09 85 1004.7
20260509010053 63 285 0.0 0.0 0.00 0.09 0.09 83 1004.7
20260509004559 64 273 0.0 0.0 0.00 0.09 0.09 80 1004.6
20260509003053 65 359 0.0 0.0 0.00 0.09 0.09 77 1004.5
20260509001552 66 359 0.0 4.0 0.00 0.09 0.09 76 1004.3
20260509000051 66 359 3.0 6.0 0.00 0.09 0.09 75 1004.3
20260508234551 66 274 1.0 3.0 0.00 0.09 0.09 76 1004.1
20260508233101 66 276 2.0 5.0 0.00 0.09 0.09 76 1004.3
20260508231551 66 359 1.0 4.0 0.00 0.09 0.09 81 1004.6
20260508230053 65 359 2.0 6.0 0.00 0.09 0.09 81 1004.7
20260508224542 64 10 1.0 3.0 0.00 0.09 0.09 86 1004.5
20260508223040 62 17 0.0 3.0 0.00 0.09 0.09 88 1004.5
20260508221539 61 18 1.0 4.0 0.00 0.09 0.09 91 1004.5
20260508220038 60 21 0.0 3.0 0.01 0.09 0.09 93 1004.5
20260508214539 59 23 3.0 7.0 0.03 0.09 0.09 92 1004.1
20260508213036 59 18 2.0 4.0 0.06 0.09 0.09 91 1005.0
20260508211536 60 359 0.0 2.0 0.06 0.09 0.09 91 1005.3
20260508210031 60 71 0.0 2.0 0.06 0.08 0.08 90 1006.0
20260508204530 60 72 0.0 2.0 0.05 0.05 0.05 89 1006.1
20260508203029 60 66 1.0 7.0 0.03 0.03 0.03 88 1006.1
20260508201529 61 73 3.0 5.0 0.03 0.03 0.03 87 1006.2
20260508200030 61 16 0.0 2.0 0.02 0.02 0.02 85 1006.4
20260508194526 62 23 0.0 2.0 0.00 0.00 0.00 83 1006.1
20260508193026 62 25 0.0 2.0 0.00 0.00 0.00 82 1006.4
20260508191534 62 24 0.0 3.0 0.00 0.00 0.00 82 1006.0
20260508190024 62 25 1.0 3.0 0.00 0.00 0.00 79 1006.1
20260508184526 62 27 0.0 3.0 0.00 0.00 0.00 76 1005.8
20260508183023 63 26 1.0 3.0 0.00 0.00 0.00 75 1005.8
20260508181523 63 33 0.0 4.0 0.00 0.00 0.00 74 1006.2
20260508180022 63 39 1.0 5.0 0.00 0.00 0.00 73 1006.2
20260508174527 62 23 1.0 4.0 0.00 0.00 0.00 74 1006.1
20260508173021 62 4 2.0 5.0 0.00 0.00 0.00 73 1005.6
20260508171526 63 9 1.0 4.0 0.00 0.00 0.00 72 1006.1
20260508170020 63 8 2.0 6.0 0.00 0.00 0.00 70 1006.2
20260508164518 63 13 2.0 5.0 0.00 0.00 0.00 69 1006.6
20260508163017 62 56 1.0 10.0 0.00 0.00 0.00 71 1007.6
20260508161515 62 64 2.0 8.0 0.00 0.00 0.00 73 1007.0
20260508160016 61 67 3.0 7.0 0.00 0.00 0.00 72 1006.8
20260508154511 61 48 0.0 7.0 0.00 0.00 0.00 73 1006.5